Regional Weather Roundup
Issued by NWS Kansas City/Pleasant Hill, MO

Home | Current Version | Previous Version | Text Only | Print | Product List | Glossary On
Versions: 1 2 3 4 5 6 7 8 9 10 11 12 13 14 15 16 17 18 19 20 21 22 23 24 25 26 27 28 29 30 31 32 33 34 35 36 37 38 39 40 41 42 43 44 45 46 47 48 49 50
000
ASUS43 KEAX 021610
RWREAX

WEATHER ROUNDUP FOR EASTERN KANSAS AND NORTHWEST MISSOURI
NATIONAL WEATHER SERVICE KANSAS CITY/PLEASANT HILL MO
1100 AM CDT WED SEP 02 2015

KSZ040-057-103>105-MOZ028-029-037-043-021700-
...KANSAS CITY METROPOLITAN AREA...

CITY           SKY/WX    TMP DP  RH WIND       PRES   REMARKS
K.C. INTL      LGT RAIN  71  69  93 SE12      30.07F
K.C. DOWNTOWN  LGT RAIN  76  68  76 E9        30.06F
LEES SUMMIT    PTSUNNY   78  68  71 CALM      30.10S
OLATHE - IXD   LGT RAIN  74  69  85 SE7       30.08F
OLATHE - OJC   CLOUDY    74  69  85 SE5       30.08S
LAWRENCE       LGT RAIN  71  69  93 E8        30.05S

$$

MOZ001>008-011>017-020>025-030>033-038>040-044>046-053-054-021700-
...NORTHERN AND CENTRAL MISSOURI...

CITY           SKY/WX    TMP DP  RH WIND       PRES   REMARKS
ST. JOSEPH     CLOUDY    73  71  93 S10       30.04R
MOSBY          LGT RAIN  70  68  94 E7        30.07F
WARRENSBURG    PTSUNNY   81  68  65 S6        30.09F
WHITEMAN AFB   PTSUNNY   81  68  66 SW10      30.09S
CLINTON        MOSUNNY   82  70  65 SW9       30.11R
SEDALIA        CLOUDY    84  69  60 SW10      30.12R
WARSAW         NOT AVBL
CHILLICOTHE      N/A     72  70  93 SE5       30.10F
KIRKSVILLE     CLOUDY    75  68  78 W6        30.11S

$$

MOZ041-047>049-056>058-063>065-088>090-097-021700-
...EASTERN AND SOUTHERN MISSOURI...

CITY           SKY/WX    TMP DP  RH WIND       PRES   REMARKS
ST. LOUIS INTL MOSUNNY   89  68  49 W5        30.11S HX  93
SPIRIT OF STL  MOSUNNY   86  71  60 W10       30.09S HX  91
COLUMBIA       MOSUNNY   83  70  64 W12       30.12R
JEFFERSON CITY MOSUNNY   84  68  58 W6        30.10S
ROLLA          SUNNY     84  68  58 W6        30.12S
OSAGE BEACH    SUNNY     84  68  58 W8        30.12S
SPRINGFIELD    SUNNY     82  69  64 SW12      30.12S
BRANSON        MOSUNNY   84  68  58 CALM      30.14S
JOPLIN         SUNNY     83  69  62 S14       30.09S
WEST PLAINS    SUNNY     82  67  60 SW6       30.15F

$$

IAZ060-094-KSZ022-034>040-054-083-096-NEZ052-066-093-021700-
...KANSAS...SOUTHEAST NEBRASKA AND IOWA...

CITY           SKY/WX    TMP DP  RH WIND       PRES   REMARKS
TOPEKA         CLOUDY    74  70  87 SE9       30.02R
MANHATTAN      PTSUNNY   83  67  58 S12G22    29.97R
EMPORIA        MOSUNNY   79  68  69 SE10      30.03S
CHANUTE        SUNNY     82  69  64 S14       30.07R
WICHITA        MOSUNNY   86  67  52 S16G24    29.99F
OMAHA          MOSUNNY   81  69  67 S21G28    29.92F
LINCOLN        SUNNY     83  68  60 S14       29.91S
FALLS CITY     MOSUNNY   78  69  73 SE20      29.98S
LAMONI         LGT RAIN  71  69  93 S18G26    30.03F
DES MOINES     MOSUNNY   80  68  66 S17G30    29.96F

$$



USA.gov is the U.S. government's official web portal to all federal, state and local government web resources and services.